Home > Weather > Uelzen > Past weeks

Flag for Germany Past Weather in Uelzen, Lower Saxony, Germany — Yesterday and Last 2 Weeks

Now
61 °F

Fog.


Feels Like: 61 °F
Forecast: 59 / 76 °F
Wind: 5 mph from Northeast

Location: Fassberg

Current Time: Jun 1, 2016 at 3:52:38 AM

Latest Report: Jun 1, 2016 at 3:20 AM


Visibility: 3 mi

Pressure: 29.89 "Hg

Humidity: 94%

Dew Point: 59 °F

Location of UelzenLocation

Past Weather in Uelzen — Graph

°F

Uelzen Temperature Yesterday

Maximum temperature yesterday: 77 °F (at 3:20 PM)
Minimum temperature yesterday: 61 °F (at 1:20 AM)
Average temperature yesterday: 68 °F

High & Low Weather Summary for the Past Weeks

 TemperatureHumidityPressure
High82 °F (May 22, 2:20 PM)100% (May 18, 4:20 AM)30.04 "Hg (May 18, 4:20 AM)
Low34 °F (May 18, 4:20 AM)30% (May 22, 2:20 PM)29.62 "Hg (May 30, 3:01 PM)
Average59 °F76%29.89 "Hg
* Reported May 17 2:20 AM — Jun 1 2:20 AM, Uelzen, Weather by CustomWeather, © 2016

Note: Actual official high and low records may vary slightly from our data, if they occured in-between our weather recording intervals... More about our weather records

Advertising

Uelzen Weather History for the Previous 24 Hours

Scroll right to see more
 ConditionsComfort  
Time TempWeatherWind HumidityBarometerVisibility
2:20 AM
Wed, Jun 1
63 °FPassing clouds.7 mph88%29.89 "Hg5 mi
1:20 AM63 °FPassing clouds.6 mph88%29.89 "HgN/A
12:20 AM64 °FPartly cloudy.2 mph83%29.89 "HgN/A
11:20 PM
Tue, May 31
64 °FPassing clouds.3 mph83%29.89 "HgN/A
10:20 PM66 °FBroken clouds.5 mph83%29.89 "HgN/A
9:20 PM70 °FPartly sunny.9 mph73%29.89 "HgN/A
8:20 PM73 °FPartly sunny.12 mph65%29.86 "HgN/A
7:20 PM73 °FScattered clouds.12 mph65%29.86 "HgN/A
6:20 PM75 °FPassing clouds.12 mph61%29.83 "HgN/A
5:20 PM77 °FScattered clouds.9 mph54%29.83 "HgN/A
4:20 PM77 °FScattered clouds.7 mph54%29.83 "HgN/A
3:20 PM77 °FScattered clouds.3 mph57%29.83 "HgN/A
2:20 PM73 °FScattered clouds.6 mph65%29.83 "HgN/A
1:20 PM73 °FScattered clouds.9 mph69%29.86 "HgN/A
12:20 PM72 °FScattered clouds.9 mph73%29.86 "HgN/A
11:20 AM72 °FScattered clouds.2 mph69%29.83 "HgN/A
10:20 AM70 °FScattered clouds.3 mph73%29.83 "HgN/A
9:20 AM66 °FScattered clouds.1 mph78%29.83 "HgN/A
8:20 AM64 °FScattered clouds.No wind83%29.83 "HgN/A
7:45 AM63 °FPartly sunny.2 mph88%29.80 "Hg5 mi
7:20 AM63 °FPartly sunny.5 mph88%29.80 "Hg4 mi
7:02 AM63 °FPartly sunny.2 mph94%29.80 "Hg4 mi
6:45 AM63 °FFog.3 mph88%29.80 "Hg3 mi
6:20 AM61 °FFog.1 mph94%29.80 "Hg2 mi
5:20 AM61 °FFog.3 mph100%29.77 "Hg2 mi
4:20 AM63 °FFog.5 mph94%29.77 "Hg3 mi
3:20 AM63 °FFog.6 mph94%29.77 "Hg3 mi
Weather by CustomWeather, © 2016

See weather overviewHow to use our weather pages